EA7RX-3 Weather Reports


time (UTC)temp
F
wind
direction
speed
knots
gust
knots
rain 1hr
in
rain 24hr
in
rain mn
in
humidity
%
barometer
mb
20260508070735 57 0.0 0.0 0.00 0.00 0.00 10 1007.2
20260508065735 57 0.0 0.0 0.00 0.00 0.00 10 1007.2
20260508064735 57 0.0 0.0 0.00 0.00 0.00 10 1007.1
20260508063735 56 0.0 0.0 0.00 0.00 0.00 10 1007.1
20260508062735 56 0.0 0.0 0.00 0.00 0.00 10 1007.0
20260508061735 57 0.0 0.0 0.00 0.00 0.00 10 1006.8
20260508060735 56 0.0 0.0 0.00 0.00 0.00 10 1006.8
20260508055735 56 0.0 0.0 0.00 0.00 0.00 10 1006.7
20260508054735 57 0.0 0.0 0.00 0.00 0.00 10 1006.5
20260508053735 57 0.0 0.0 0.00 0.00 0.00 10 1006.5
20260508052735 56 0.0 0.0 0.00 0.00 0.00 10 1006.5
20260508051735 56 0.0 0.0 0.00 0.00 0.00 10 1006.4
20260508045825 56 0.0 0.0 0.00 0.00 0.00 10 1006.2
20260508044834 56 0.0 0.0 0.00 0.00 0.00 10 1006.3
20260508043823 57 0.0 0.0 0.00 0.00 0.00 10 1006.2
20260508042823 57 0.0 0.0 0.00 0.00 0.00 10 1006.2
20260508041825 57 0.0 0.0 0.00 0.00 0.00 10 1006.5
20260508040823 56 0.0 0.0 0.00 0.00 0.00 10 1006.6
20260508035825 57 0.0 0.0 0.00 0.00 0.00 10 1006.5
20260508034823 56 0.0 0.0 0.00 0.00 0.00 10 1006.5
20260508033825 57 0.0 0.0 0.00 0.00 0.00 10 1006.7
20260508032823 57 0.0 0.0 0.00 0.00 0.00 10 1006.5
20260508031823 58 0.0 0.0 0.00 0.00 0.00 10 1006.4
20260508030823 57 0.0 0.0 0.00 0.00 0.00 10 1006.5
20260508025823 57 0.0 0.0 0.00 0.00 0.00 10 1006.6
20260508024823 58 0.0 0.0 0.00 0.00 0.00 10 1006.4
20260508023823 58 0.0 0.0 0.00 0.00 0.00 10 1006.5
20260508022823 58 0.0 0.0 0.00 0.00 0.00 10 1006.6
20260508021825 58 0.0 0.0 0.00 0.00 0.00 10 1006.6
20260508020825 58 0.0 0.0 0.00 0.00 0.00 10 1006.6
20260508015823 58 0.0 0.0 0.00 0.00 0.00 10 1006.5
20260508014823 58 0.0 0.0 0.00 0.00 0.00 10 1006.5
20260508013823 59 0.0 0.0 0.00 0.00 0.00 98 1006.6
20260508012825 59 0.0 0.0 0.00 0.00 0.00 98 1006.8
20260508011823 60 0.0 0.0 0.00 0.00 0.00 97 1006.9
20260508010823 60 0.0 0.0 0.00 0.00 0.00 96 1007.0
20260508005823 60 0.0 0.0 0.00 0.00 0.00 95 1007.1
20260508004823 61 0.0 0.0 0.00 0.00 0.00 90 1007.0
20260508003825 61 0.0 0.0 0.00 0.00 0.00 88 1007.2
20260508002825 61 0.0 0.0 0.00 0.00 0.00 87 1007.2
20260508001825 61 0.0 0.0 0.00 0.00 0.00 88 1007.4
20260508000825 61 0.0 0.0 0.00 0.00 0.00 85 1007.4
20260507235823 61 0.0 0.0 0.00 0.00 0.00 89 1007.5
20260507234823 61 0.0 0.0 0.00 0.00 0.00 90 1007.6
20260507233823 62 0.0 0.0 0.00 0.00 0.00 90 1007.5
20260507232823 61 0.0 0.0 0.00 0.00 0.00 90 1007.4
20260507231823 62 0.0 0.0 0.00 0.00 0.00 89 1007.5
20260507230825 62 0.0 0.0 0.00 0.00 0.00 91 1007.5
20260507225823 62 0.0 0.0 0.00 0.00 0.00 90 1007.4
20260507224823 62 0.0 0.0 0.00 0.00 0.00 90 1007.4
20260507223823 62 0.0 0.0 0.00 0.00 0.00 87 1007.4
20260507222825 62 0.0 0.0 0.00 0.00 0.00 87 1007.6
20260507221823 62 0.0 0.0 0.00 0.00 0.00 88 1007.9
20260507220823 62 0.0 0.0 0.00 0.00 0.00 89 1007.8
20260507215823 63 0.0 0.0 0.00 0.00 0.00 85 1007.9
20260507214823 63 0.0 0.0 0.00 0.00 0.00 86 1007.9
20260507213823 63 0.0 0.0 0.00 0.00 0.00 89 1007.7
20260507212823 63 0.0 0.0 0.00 0.00 0.00 74 1007.7
20260507211823 64 0.0 0.0 0.00 0.00 0.00 73 1007.5
20260507210823 64 0.0 0.0 0.00 0.00 0.00 75 1007.5
20260507205823 64 0.0 0.0 0.00 0.00 0.00 73 1007.1
20260507204823 65 0.0 0.0 0.00 0.00 0.00 72 1006.8
20260507203825 64 0.0 0.0 0.00 0.00 0.00 75 1006.9
20260507202823 64 0.0 0.0 0.00 0.00 0.00 82 1006.8
20260507201823 64 0.0 0.0 0.00 0.00 0.00 74 1006.5
20260507200823 65 0.0 0.0 0.00 0.00 0.00 76 1006.5
20260507195823 65 0.0 0.0 0.00 0.00 0.00 76 1006.5
20260507194825 65 0.0 0.0 0.00 0.00 0.00 64 1006.5
20260507193828 66 0.0 0.0 0.00 0.00 0.00 60 1006.2
20260507192825 68 0.0 0.0 0.00 0.00 0.00 55 1005.8
20260507191823 69 0.0 0.0 0.00 0.00 0.00 52 1005.3
20260507190823 70 0.0 0.0 0.00 0.00 0.00 48 1005.1
20260507185823 72 0.0 0.0 0.00 0.00 0.00 44 1004.4
20260507184825 74 0.0 0.0 0.00 0.00 0.00 41 1004.3
20260507183823 75 0.0 0.0 0.00 0.00 0.00 39 1004.0
20260507182825 78 0.0 0.0 0.00 0.00 0.00 36 1003.5
20260507181823 90 0.0 0.0 0.00 0.00 0.00 29 1002.1
20260507180825 88 0.0 0.0 0.00 0.00 0.00 29 1002.2
20260507175823 91 0.0 0.0 0.00 0.00 0.00 28 1002.1
20260507174825 93 0.0 0.0 0.00 0.00 0.00 28 1001.8
20260507173823 91 0.0 0.0 0.00 0.00 0.00 29 1001.9
20260507172823 90 0.0 0.0 0.00 0.00 0.00 29 1002.0
20260507171823 75 0.0 0.0 0.00 0.00 0.00 39 1003.9
20260507170825 72 0.0 0.0 0.00 0.00 0.00 41 1004.4
20260507165825 72 0.0 0.0 0.00 0.00 0.00 41 1004.4
20260507164823 72 0.0 0.0 0.00 0.00 0.00 42 1004.5
20260507163823 69 0.0 0.0 0.00 0.00 0.00 47 1005.0
20260507162825 70 0.0 0.0 0.00 0.00 0.00 44 1005.0
20260507161823 72 0.0 0.0 0.00 0.00 0.00 41 1004.7
20260507160825 73 0.0 0.0 0.00 0.00 0.00 40 1004.6
20260507155823 72 0.0 0.0 0.00 0.00 0.00 40 1004.7
20260507154823 72 0.0 0.0 0.00 0.00 0.00 42 1004.5
20260507153823 71 0.0 0.0 0.00 0.00 0.00 45 1004.7
20260507153056 71 0.0 0.0 0.00 0.00 0.00 46 1004.8
20260507152823 71 0.0 0.0 0.00 0.00 0.00 46 1004.8
20260507151916 72 0.0 0.0 0.00 0.00 0.00 41 1004.2
20260507151823 72 0.0 0.0 0.00 0.00 0.00 41 1004.2
20260507150823 72 0.0 0.0 0.00 0.00 0.00 41 1004.4
20260507145823 71 0.0 0.0 0.00 0.00 0.00 41 1004.4
20260507144825 70 0.0 0.0 0.00 0.00 0.00 42 1004.8
20260507143823 70 0.0 0.0 0.00 0.00 0.00 41 1004.9
20260507142823 71 0.0 0.0 0.00 0.00 0.00 39 1004.8
20260507141825 71 0.0 0.0 0.00 0.00 0.00 38 1004.8
20260507140823 71 0.0 0.0 0.00 0.00 0.00 41 1004.9
20260507135823 70 0.0 0.0 0.00 0.00 0.00 42 1005.1
20260507134825 69 0.0 0.0 0.00 0.00 0.00 46 1005.7
20260507133823 67 0.0 0.0 0.00 0.00 0.00 46 1006.1
20260507132823 65 0.0 0.0 0.00 0.00 0.00 58 1006.5
20260507131823 64 0.0 0.0 0.00 0.00 0.00 58 1006.8
20260507130823 65 0.0 0.0 0.00 0.00 0.00 58 1006.7
20260507125825 67 0.0 0.0 0.00 0.00 0.00 59 1006.4
20260507124825 68 0.0 0.0 0.00 0.00 0.00 58 1006.1
20260507123823 68 0.0 0.0 0.00 0.00 0.00 59 1006.1
20260507122823 66 0.0 0.0 0.00 0.00 0.00 58 1006.5
20260507121823 66 0.0 0.0 0.00 0.00 0.00 63 1006.6
20260507120823 66 0.0 0.0 0.00 0.00 0.00 65 1006.4
20260507115823 65 0.0 0.0 0.00 0.00 0.00 69 1006.7
20260507114823 65 0.0 0.0 0.00 0.00 0.00 70 1006.9
20260507113823 64 0.0 0.0 0.00 0.00 0.00 74 1007.2
20260507112823 63 0.0 0.0 0.00 0.00 0.00 79 1007.4
20260507111823 63 0.0 0.0 0.00 0.00 0.00 85 1007.3
20260507110823 63 0.0 0.0 0.00 0.00 0.00 84 1007.6
20260507105825 62 0.0 0.0 0.00 0.00 0.00 89 1007.8
20260507104825 62 0.0 0.0 0.00 0.00 0.00 87 1008.0
20260507103823 62 0.0 0.0 0.00 0.00 0.00 95 1008.1
20260507102825 62 0.0 0.0 0.00 0.00 0.00 89 1008.2
20260507101823 63 0.0 0.0 0.00 0.00 0.00 90 1008.0
20260507100823 62 0.0 0.0 0.00 0.00 0.00 10 1008.0
20260507095823 60 0.0 0.0 0.00 0.00 0.00 10 1008.2
20260507094823 60 0.0 0.0 0.00 0.00 0.00 98 1008.3
20260507093823 60 0.0 0.0 0.00 0.00 0.00 98 1008.2
20260507092823 58 0.0 0.0 0.00 0.00 0.00 10 1008.4
20260507091823 57 0.0 0.0 0.00 0.00 0.00 10 1008.4
20260507090825 56 0.0 0.0 0.00 0.00 0.00 10 1008.6
20260507085825 56 0.0 0.0 0.00 0.00 0.00 10 1008.6
20260507084823 57 0.0 0.0 0.00 0.00 0.00 10 1008.7
20260507083825 56 0.0 0.0 0.00 0.00 0.00 10 1009.0
20260507082823 56 0.0 0.0 0.00 0.00 0.00 10 1009.0
20260507081823 55 0.0 0.0 0.00 0.00 0.00 10 1009.2
20260507080823 55 0.0 0.0 0.00 0.00 0.00 10 1009.2
20260507075823 55 0.0 0.0 0.00 0.00 0.00 10 1009.4
20260507074823 55 0.0 0.0 0.00 0.00 0.00 10 1009.7
20260507073824 55 0.0 0.0 0.00 0.00 0.00 10 1008.9
20260507072825 54 0.0 0.0 0.00 0.00 0.00 10 1009.0
20260507071824 54 0.0 0.0 0.00 0.00 0.00 10 1009.0